Regional Weather Roundup
Issued by NWS

Home | Current Version | Previous Version | Graphics & Text | Print | Product List | Glossary On
Versions: 1 2 3 4 5 6 7 8 9 10 11 12 13 14 15 16 17 18 19 20 21 22 23 24 25 26 27 28 29 30 31 32 33 34 35 36 37 38 39 40 41 42 43 44 45 46 47 48 49 50
000
ASUS43 KBIS 240902
RWRND

NORTH DAKOTA REGIONAL WEATHER ROUNDUP
NATIONAL WEATHER SERVICE BISMARCK ND
300 AM CST SAT FEB 24 2018

NOTE: "FAIR" INDICATES FEW OR NO CLOUDS BELOW 12,000 FEET WITH NO
SIGNIFICANT WEATHER AND/OR OBSTRUCTIONS TO VISIBILITY.


NDZ001>003-009>011-017-241000-
NORTHWEST NORTH DAKOTA

CITY           SKY/WX    TMP DP  RH WIND       PRES   REMARKS
WILLISTON      CLEAR     -7 -12  79 CALM      29.88F
MINOT          CLEAR     13   0  56 S20       29.89F WCI  -5
MINOT AFB      CLOUDY     9  -1  62 S12         N/A  WCI  -6
$$

NDZ018>021-031>035-040>046-241000-
SOUTHWEST NORTH DAKOTA

CITY           SKY/WX    TMP DP  RH WIND       PRES   REMARKS
BISMARCK       CLEAR      1  -4  79 SE3       30.04F
DICKINSON      CLEAR      4  -3  73 S18       29.84F WCI -16
GARRISON         N/A      1  -7  68 S8        29.94F WCI -13
HETTINGER ARPT PTCLDY     2  -3  80 SE6       29.91F WCI  -9
$$

NDZ004>008-012>016-024-026-027-054-241000-
NORTHEAST NORTH DAKOTA

CITY           SKY/WX    TMP DP  RH WIND       PRES   REMARKS
GRAND FORKS    FAIR       1  -3  83 SE8       30.13F WCI -13
GRND FRKS AFB  CLEAR      1  -2  85 SE8       30.14F WCI -12
DEVILS LAKE    FAIR       7  -1  70 S9        30.02F WCI  -7
$$

NDZ022-023-025-028>030-036>039-047>053-241000-
SOUTHEAST NORTH DAKOTA

CITY           SKY/WX    TMP DP  RH WIND       PRES   REMARKS
FARGO          FAIR      -1  -4  87 SE6       30.16F WCI -13
JAMESTOWN      CLOUDY    -3  -7  82 S6        30.05F WCI -15
$$





USA.gov is the U.S. government's official web portal to all federal, state and local government web resources and services.